Jersey, United Kingdom

9:00 PM BST on April 21, 2018 (GMT +0100)
Jersey

Weather History for EGJJ - November, 2013

Change the Weather History Date:

Friday, November 15, 2013

  Actual Average Record
Temperature  
Mean Temperature 48 °F -  
Max Temperature 50 °F 48 °F 59 °F (1997)
Min Temperature 46 °F 42 °F 33 °F (2007)
Degree Days  
Heating Degree Days 17    
Moisture  
Dew Point 40 °F    
Average Humidity 69    
Maximum Humidity 82    
Minimum Humidity 55    
Precipitation  
Precipitation 0.00 in - - ()
Sea Level Pressure  
Sea Level Pressure 30.46 in    
Wind  
Wind Speed 14 mph ()    
Max Wind Speed 21 mph    
Max Gust Speed 32 mph    
Visibility 6.5 miles    
Events      
Averages and records for this station are not official NWS values.
T = Trace of Precipitation, MM = Missing Value Source: Averaged Metar Reports

Daily Weather History Graph

Daily Weather History Graph

Search for Another Location

Airport or City:

Astronomy

Nov. 15, 2013 Rise Set
Actual Time 7:19 AM GMT 4:27 PM GMT
Civil Twilight 6:44 AM GMT 5:02 PM GMT
Nautical Twilight 6:05 AM GMT 5:40 PM GMT
Astronomical Twilight 5:27 AM GMT 6:18 PM GMT
Moon 3:23 PM GMT (11/15) 4:50 AM GMT (11/15)
Length of Visible Light 10h 17m
Length of Day
9h 08m
Waxing Gibbous, 95% of the Moon is Illuminated
Nov 15
Waxing Gibbous
Nov 17
Full
Nov 25
Last Quarter
Dec 3
New
Dec 9
First Quarter

Hourly Weather History & Observations

Time (GMT) Temp. Windchill Dew Point Humidity Pressure Visibility Wind Dir Wind Speed Gust Speed Precip Events Conditions
12:00 AM 48 °F - 37 °F 55% 30.45 in 22 mi North 20.7 mph - -   Partly Cloudy
12:20 AM 48.2 °F - 37.4 °F 66% 30.42 in 6.2 mi North 19.6 mph - N/A   Scattered Clouds
3:00 AM 47 °F - 37 °F 58% 30.46 in 25 mi North 18.4 mph - -   Partly Cloudy
3:50 AM 46.4 °F 40.1 °F 37.4 °F 71% 30.45 in 6.2 mi North 15.0 mph - N/A   Scattered Clouds
4:20 AM 46.4 °F 41.5 °F 37.4 °F 71% 30.45 in 6.2 mi North 10.4 mph - N/A   Partly Cloudy
4:50 AM 46.4 °F 40.7 °F 37.4 °F 71% 30.45 in 6.2 mi North 12.7 mph - N/A   Partly Cloudy
5:20 AM 46.4 °F 39.8 °F 39.2 °F 76% 30.45 in 6.2 mi North 16.1 mph - N/A   Scattered Clouds
5:50 AM 48.2 °F - 39.2 °F 71% 30.45 in 6.2 mi North 13.8 mph 27.6 mph N/A   Scattered Clouds
6:00 AM 47 °F - 39 °F 64% 30.46 in 22 mi North 16.1 mph - -   Partly Cloudy
6:20 AM 48.2 °F - 39.2 °F 71% 30.45 in 6.2 mi North 16.1 mph - N/A   Scattered Clouds
6:50 AM 48.2 °F - 37.4 °F 66% 30.45 in 6.2 mi North 12.7 mph - N/A   Mostly Cloudy
7:20 AM 48.2 °F - 39.2 °F 71% 30.45 in 6.2 mi North 17.3 mph - N/A   Scattered Clouds
7:50 AM 48.2 °F - 39.2 °F 71% 30.48 in 6.2 mi North 12.7 mph - N/A   Scattered Clouds
8:20 AM 48.2 °F - 37.4 °F 66% 30.48 in 6.2 mi North 16.1 mph - N/A   Scattered Clouds
8:50 AM 48.2 °F - 39.2 °F 71% 30.48 in 6.2 mi North 16.1 mph - N/A   Scattered Clouds
9:00 AM 49 °F - 40 °F 61% 30.48 in 22 mi NNE 19.6 mph - -   Partly Cloudy
9:20 AM 48.2 °F - 39.2 °F 71% 30.45 in 6.2 mi NNE 15.0 mph 26.5 mph N/A   Partly Cloudy
9:50 AM 50.0 °F - 39.2 °F 66% 30.48 in 6.2 mi NNE 18.4 mph - N/A   Partly Cloudy
10:20 AM 50.0 °F - 39.2 °F 66% 30.45 in 6.2 mi North 15.0 mph 32.2 mph N/A   Partly Cloudy
10:50 AM 50.0 °F - 39.2 °F 66% 30.45 in 6.2 mi NNE 17.3 mph 31.1 mph N/A   Partly Cloudy
11:20 AM 50.0 °F - 39.2 °F 66% 30.45 in 6.2 mi North 13.8 mph - N/A   Partly Cloudy
11:50 AM 50.0 °F - 37.4 °F 62% 30.48 in 6.2 mi NNE 18.4 mph 29.9 mph N/A   Scattered Clouds
12:00 PM 49 °F - 38 °F 55% 30.48 in 28 mi NNE 17.3 mph - -   Partly Cloudy
12:20 PM 50.0 °F - 39.2 °F 66% 30.45 in 6.2 mi North 12.7 mph - N/A   Scattered Clouds
12:50 PM 50.0 °F - 39.2 °F 66% 30.45 in 6.2 mi North 17.3 mph - N/A   Scattered Clouds
1:20 PM 50.0 °F - 39.2 °F 66% 30.45 in 6.2 mi NNE 17.3 mph - N/A   Mostly Cloudy
1:50 PM 48.2 °F - 39.2 °F 71% 30.45 in 6.2 mi NNE 17.3 mph - N/A   Mostly Cloudy
2:20 PM 50.0 °F - 41.0 °F 71% 30.45 in 6.2 mi NNE 12.7 mph - N/A   Mostly Cloudy
2:50 PM 48.2 °F - 41.0 °F 76% 30.45 in 6.2 mi NNE 18.4 mph - N/A   Mostly Cloudy
3:00 PM 49 °F - 40 °F 63% 30.47 in 25 mi NNE 15.0 mph - -   Mostly Cloudy
3:20 PM 48.2 °F - 41.0 °F 76% 30.45 in 6.2 mi NNE 10.4 mph - N/A   Mostly Cloudy
3:50 PM 48.2 °F - 41.0 °F 76% 30.45 in 6.2 mi NNE 15.0 mph - N/A   Mostly Cloudy
4:20 PM 48.2 °F - 41.0 °F 76% 30.45 in 6.2 mi NNE 12.7 mph - N/A   Partly Cloudy
4:50 PM 48.2 °F - 41.0 °F 76% 30.45 in 6.2 mi NNE 13.8 mph - N/A   Scattered Clouds
5:20 PM 48.2 °F - 41.0 °F 76% 30.45 in 6.2 mi NNE 12.7 mph - N/A   Scattered Clouds
5:50 PM 48.2 °F - 41.0 °F 76% 30.45 in 6.2 mi NNE 12.7 mph - N/A   Scattered Clouds
6:00 PM 49 °F - 41 °F 67% 30.47 in 22 mi NNE 12.7 mph - -   Mostly Cloudy
6:20 PM 50.0 °F - 41.0 °F 71% 30.45 in 6.2 mi NNE 15.0 mph - N/A   Mostly Cloudy
6:50 PM 48.2 °F - 42.8 °F 82% 30.45 in 6.2 mi NE 11.5 mph - N/A   Mostly Cloudy
7:20 PM 50.0 °F - 42.8 °F 76% 30.45 in 6.2 mi NNE 12.7 mph - N/A   Mostly Cloudy
7:50 PM 50.0 °F - 42.8 °F 76% 30.45 in 6.2 mi NE 9.2 mph - N/A   Mostly Cloudy
8:20 PM 50.0 °F - 42.8 °F 76% 30.48 in 6.2 mi NE 15.0 mph - N/A   Mostly Cloudy
9:00 PM 49 °F - 42 °F 70% 30.48 in 17 mi NNE 12.7 mph - -   Mostly Cloudy